Location: Anjeux
(47.8815°N, 6.2076°E)
Time: 03:39:19
(UTC+00:00)

First-Move - Pass Details

Date: 10 December 2021
Orbit: 574 x 664 km, 97.6° (Epoch: 22 January)

Event Time Altitude Azimuth Distance (km) Brightness Sun altitude
Rises 16:28:50 0° 214° (SW) 2,881 ? -7.6°
Reaches altitude 10° 16:31:58 10° 239° (WSW) 2,003 ? -8.0°
Maximum altitude 16:34:19 14° 272° (W) 1,753 ? -8.4°
Drops below altitude 10° 16:36:44 10° 305° (NW) 2,041 ? -8.7°
Sets 16:39:59 0° 330° (NNW) 2,976 ? -9.2°
